When you browse on this site, cookies collect data to enhance your experience and personalize the content and advertising you see.
Visit our Privacy Policy to learn more. By continuing to use the site, you agree to this use of cookies and data.
  • Em Portugal
  • Lista de países
  • Para 7 dias
  • Temperatura da água
  • Mapas de satélite
  • Mapa do tempo
  • Widgets de tempo
  • user-avatar
    Iniciar Sessão

    Previsão horária em Chernogryazka

    Hoje, 20 Maio, Segunda-feira

    Tempo Temperatura Precipitação Vento Pressão Humidade
    00:00 +12°C° 0 mm 2 m/s 745 mmHg 82%
    01:00 +12°C° 0 mm 2 m/s 745 mmHg 83%
    02:00 +10°C° 0 mm 2 m/s 745 mmHg 83%
    03:00 +10°C° 0 mm 2 m/s 745 mmHg 83%
    04:00 +11°C° 0 mm 1 m/s 745 mmHg 82%
    05:00 +12°C° 0 mm 1 m/s 746 mmHg 81%
    06:00 +13°C° 0 mm 1 m/s 746 mmHg 75%
    07:00 +15°C° 0 mm 1 m/s 746 mmHg 69%
    08:00 +18°C° 0 mm 1 m/s 746 mmHg 63%
    09:00 +19°C° 0 mm 1 m/s 746 mmHg 60%
    10:00 +19°C° 0 mm 0 m/s 746 mmHg 57%
    11:00 +20°C° 0 mm 0 m/s 746 mmHg 54%
    12:00 +21°C° 0 mm 0 m/s 746 mmHg 52%
    13:00 +23°C° 0 mm 1 m/s 746 mmHg 49%
    14:00 +23°C° 0 mm 1 m/s 746 mmHg 47%
    15:00 +23°C° 0 mm 1 m/s 746 mmHg 50%
    16:00 +23°C° 0 mm 1 m/s 745 mmHg 53%
    17:00 +23°C° 0 mm 1 m/s 745 mmHg 56%
    18:00 +21°C° 0 mm 1 m/s 745 mmHg 61%
    19:00 +19°C° 0 mm 1 m/s 745 mmHg 65%
    20:00 +15°C° 0 mm 1 m/s 745 mmHg 70%
    21:00 +15°C° 0 mm 2 m/s 745 mmHg 73%
    22:00 +14°C° 0 mm 2 m/s 746 mmHg 76%
    23:00 +13°C° 0 mm 2 m/s 746 mmHg 78%

    Amanhã, 21 Maio, Terça-feira

    Tempo Temperatura Precipitação Vento Pressão Humidade
    00:00 +13°C° 0 mm 2 m/s 746 mmHg 81%
    01:00 +12°C° 0 mm 2 m/s 746 mmHg 84%
    02:00 +12°C° 0 mm 2 m/s 746 mmHg 87%
    03:00 +12°C° 0 mm 2 m/s 746 mmHg 86%
    04:00 +12°C° 0 mm 2 m/s 746 mmHg 86%
    05:00 +12°C° 0 mm 2 m/s 746 mmHg 85%
    06:00 +14°C° 0 mm 2 m/s 746 mmHg 79%
    07:00 +16°C° 0 mm 2 m/s 746 mmHg 73%
    08:00 +17°C° 0 mm 3 m/s 746 mmHg 67%
    09:00 +18°C° 0 mm 3 m/s 746 mmHg 63%
    10:00 +19°C° 0 mm 4 m/s 746 mmHg 59%
    11:00 +20°C° 0 mm 4 m/s 746 mmHg 56%
    12:00 +20°C° 0 mm 4 m/s 745 mmHg 55%
    13:00 +21°C° 0 mm 4 m/s 745 mmHg 55%
    14:00 +21°C° 0 mm 4 m/s 745 mmHg 54%
    15:00 +21°C° 0 mm 4 m/s 744 mmHg 58%
    16:00 +20°C° 0 mm 3 m/s 744 mmHg 62%
    17:00 +20°C° 0 mm 3 m/s 743 mmHg 66%
    18:00 +18°C° 0 mm 3 m/s 743 mmHg 72%
    19:00 +17°C° 0 mm 3 m/s 743 mmHg 77%
    20:00 +14°C° 0 mm 3 m/s 743 mmHg 83%
    21:00 +13°C° 0 mm 3 m/s 743 mmHg 85%
    22:00 +13°C° 0 mm 3 m/s 743 mmHg 88%
    23:00 +12°C° 0 mm 3 m/s 742 mmHg 91%

    Depois de amanhã, 22 Maio, Quarta-feira

    Tempo Temperatura Precipitação Vento Pressão Humidade
    00:00 +12°C° 0 mm 3 m/s 742 mmHg 91%
    01:00 +12°C° 0 mm 3 m/s 742 mmHg 92%
    02:00 +11°C° 0 mm 3 m/s 742 mmHg 92%
    03:00 +12°C° 0 mm 3 m/s 741 mmHg 91%
    04:00 +12°C° 0 mm 3 m/s 741 mmHg 90%
    05:00 +12°C° 0 mm 3 m/s 741 mmHg 88%
    06:00 +14°C° 0 mm 3 m/s 741 mmHg 84%
    07:00 +17°C° 0 mm 3 m/s 741 mmHg 79%
    08:00 +19°C° 0 mm 3 m/s 740 mmHg 74%
    09:00 +20°C° 0.4 mm 3 m/s 740 mmHg 72%
    10:00 +21°C° 0.4 mm 4 m/s 740 mmHg 70%
    11:00 +22°C° 0.4 mm 4 m/s 740 mmHg 68%
    12:00 +22°C° 0.8 mm 4 m/s 739 mmHg 69%
    13:00 +22°C° 0.8 mm 5 m/s 739 mmHg 71%
    14:00 +22°C° 0.8 mm 5 m/s 738 mmHg 73%
    15:00 +21°C° 0.5 mm 4 m/s 738 mmHg 76%
    16:00 +21°C° 0.5 mm 3 m/s 738 mmHg 80%
    17:00 +21°C° 0.5 mm 2 m/s 738 mmHg 84%
    18:00 +20°C° 0.6 mm 2 m/s 737 mmHg 87%
    19:00 +18°C° 0.6 mm 2 m/s 737 mmHg 89%
    20:00 +17°C° 0.6 mm 3 m/s 737 mmHg 92%
    21:00 +17°C° 0.4 mm 3 m/s 737 mmHg 93%
    22:00 +16°C° 0.4 mm 3 m/s 737 mmHg 94%
    23:00 +16°C° 0.4 mm 3 m/s 737 mmHg 96%

    23 Maio, Quinta-feira

    Tempo Temperatura Precipitação Vento Pressão Humidade
    00:00 +14°C° 0 mm 3 m/s 737 mmHg 96%
    01:00 +14°C° 0 mm 3 m/s 736 mmHg 96%
    02:00 +14°C° 0 mm 2 m/s 736 mmHg 96%
    03:00 +15°C° 0 mm 2 m/s 736 mmHg 96%
    04:00 +15°C° 0 mm 2 m/s 736 mmHg 95%
    05:00 +15°C° 0 mm 2 m/s 736 mmHg 95%
    06:00 +17°C° 0 mm 2 m/s 736 mmHg 90%
    07:00 +18°C° 0 mm 2 m/s 736 mmHg 85%
    08:00 +20°C° 0 mm 3 m/s 736 mmHg 80%
    09:00 +21°C° 0.4 mm 3 m/s 736 mmHg 75%
    10:00 +22°C° 0.4 mm 3 m/s 736 mmHg 70%
    11:00 +24°C° 0.4 mm 3 m/s 735 mmHg 65%
    12:00 +25°C° 0.2 mm 3 m/s 735 mmHg 63%
    13:00 +25°C° 0.2 mm 3 m/s 735 mmHg 62%
    14:00 +26°C° 0.2 mm 3 m/s 735 mmHg 60%
    15:00 +25°C° 0.7 mm 3 m/s 735 mmHg 63%
    16:00 +25°C° 0.7 mm 2 m/s 735 mmHg 66%
    17:00 +25°C° 0.7 mm 1 m/s 735 mmHg 69%
    18:00 +23°C° 0.6 mm 1 m/s 735 mmHg 73%
    19:00 +21°C° 0.6 mm 1 m/s 735 mmHg 76%
    20:00 +19°C° 0.6 mm 1 m/s 735 mmHg 80%
    21:00 +18°C° 0 mm 1 m/s 735 mmHg 81%
    22:00 +18°C° 0 mm 1 m/s 735 mmHg 83%
    23:00 +18°C° 0 mm 1 m/s 735 mmHg 84%

    24 Maio, Sexta-feira

    Tempo Temperatura Precipitação Vento Pressão Humidade
    00:00 +16°C° 0.1 mm 1 m/s 735 mmHg 86%
    01:00 +16°C° 0.1 mm 1 m/s 735 mmHg 88%
    02:00 +15°C° 0.1 mm 1 m/s 735 mmHg 90%
    03:00 +15°C° 0.3 mm 1 m/s 735 mmHg 91%
    04:00 +15°C° 0.3 mm 0 m/s 735 mmHg 91%
    05:00 +15°C° 0.3 mm 0 m/s 735 mmHg 92%
    06:00 +18°C° 0.4 mm 1 m/s 735 mmHg 88%
    07:00 +20°C° 0.4 mm 1 m/s 735 mmHg 85%
    08:00 +21°C° 0.4 mm 1 m/s 735 mmHg 81%
    09:00 +22°C° 1.4 mm 1 m/s 735 mmHg 78%
    10:00 +21°C° 1.4 mm 2 m/s 735 mmHg 74%
    11:00 +23°C° 1.4 mm 2 m/s 735 mmHg 71%
    12:00 +23°C° 1.4 mm 2 m/s 735 mmHg 69%
    13:00 +24°C° 1.4 mm 2 m/s 735 mmHg 68%
    14:00 +24°C° 1.4 mm 2 m/s 734 mmHg 66%
    15:00 +23°C° 0.9 mm 2 m/s 734 mmHg 71%
    16:00 +22°C° 0.9 mm 3 m/s 734 mmHg 76%
    17:00 +21°C° 0.9 mm 3 m/s 734 mmHg 80%
    18:00 +20°C° 0.7 mm 3 m/s 734 mmHg 84%
    19:00 +19°C° 0.7 mm 3 m/s 733 mmHg 88%
    20:00 +17°C° 0.7 mm 3 m/s 733 mmHg 92%
    21:00 +17°C° 0.2 mm 3 m/s 733 mmHg 92%
    22:00 +16°C° 0.2 mm 2 m/s 733 mmHg 93%
    23:00 +16°C° 0.2 mm 2 m/s 733 mmHg 93%

    25 Maio, Sábado

    Tempo Temperatura Precipitação Vento Pressão Humidade
    00:00 +15°C° 0 mm 2 m/s 733 mmHg 93%
    01:00 +15°C° 0 mm 2 m/s 733 mmHg 93%
    02:00 +15°C° 0 mm 2 m/s 732 mmHg 92%
    03:00 +15°C° 0 mm 2 m/s 732 mmHg 92%
    04:00 +15°C° 0 mm 2 m/s 732 mmHg 92%
    05:00 +16°C° 0 mm 2 m/s 732 mmHg 92%
    06:00 +17°C° 0.1 mm 2 m/s 732 mmHg 89%
    07:00 +18°C° 0.1 mm 2 m/s 732 mmHg 87%
    08:00 +20°C° 0.1 mm 2 m/s 732 mmHg 84%
    09:00 +21°C° 0.8 mm 3 m/s 732 mmHg 80%
    10:00 +21°C° 0.8 mm 3 m/s 732 mmHg 75%
    11:00 +22°C° 0.8 mm 4 m/s 732 mmHg 71%
    12:00 +22°C° 0.9 mm 4 m/s 732 mmHg 72%
    13:00 +22°C° 0.9 mm 4 m/s 731 mmHg 72%
    14:00 +22°C° 0.9 mm 4 m/s 731 mmHg 73%
    15:00 +22°C° 0.3 mm 3 m/s 731 mmHg 74%
    16:00 +23°C° 0.3 mm 2 m/s 731 mmHg 75%
    17:00 +21°C° 0.3 mm 2 m/s 731 mmHg 76%
    18:00 +20°C° 1.5 mm 2 m/s 731 mmHg 81%
    19:00 +18°C° 1.5 mm 2 m/s 731 mmHg 85%
    20:00 +17°C° 1.5 mm 2 m/s 731 mmHg 89%
    21:00 +17°C° 0.3 mm 2 m/s 731 mmHg 91%
    22:00 +16°C° 0.3 mm 2 m/s 731 mmHg 93%
    23:00 +15°C° 0.3 mm 2 m/s 731 mmHg 95%
    Mostrar mais